Regional Weather Roundup
Issued by NWS

Home | Current Version | Previous Version | Text Only | Print | Product List | Glossary Off
Versions: 1 2 3 4 5 6 7 8 9 10 11 12 13 14 15 16 17 18 19 20 21 22 23 24 25 26 27 28 29 30 31 32 33 34 35 36 37 38 39 40 41 42 43 44 45 46 47 48 49 50

582
ASUS43 KLSX 310207
RWRMO
STLRWRMO ALL

WEATHER SUMMARY FOR MISSOURI
NATIONAL WEATHER SERVICE SPRINGFIELD MO
900 PM CDT THU MAR 30 2017

NOTE: "FAIR" INDICATES FEW OR NO CLOUDS BELOW 12,000 FEET WITH NO
       SIGNIFICANT WEATHER AND/OR OBSTRUCTIONS TO VISIBILITY.
       CURRENT SKY AND/OR WEATHER CONDITIONS ARE NOT AVAILABLE FOR
       CHILLICOTHE AND FARMINGTON.

MOZ001>031-035>038-043-044-053-054-310300-
...NORTHERN AND WESTERN MISSOURI...

CITY           SKY/WX    TMP DP  RH WIND       PRES   REMARKS
KANSAS CTY INT DRIZZLE   45  44  97 N10       29.72R
KANSAS C DTWN  CLOUDY    48  44  86 NW6       29.72R
LEE`S SUMMIT   CLOUDY    46  45  96 NW14      29.71R
ST JOSEPH      CLOUDY    45  44  97 NW13      29.74R
CHILLICOTHE      N/A     46  44  93 N7        29.70R
KIRKSVILLE     CLOUDY    44  43  96 N10       29.67R

$$
MOZ066>068-077>081-088>096-101>105-310300-
...SOUTHWEST MISSOURI...

CITY           SKY/WX    TMP DP  RH WIND       PRES   REMARKS
SPRINGFIELD    CLOUDY    47  46  97 W14       29.69R FOG
JOPLIN         CLOUDY    47  45  93 W14       29.74R
BRANSON        CLOUDY    46  41  81 W16G25    29.72S

$$
MOZ032>034-039>042-045>050-055>058-069>072-310300-
...CENTRAL MISSOURI...

CITY           SKY/WX    TMP DP  RH WIND       PRES   REMARKS
COLUMBIA       CLOUDY    50  48  93 W10       29.63S
JEFFERSON CITY CLOUDY    53  47  79 W6        29.64R
ROLLA          CLOUDY    48  45  89 SW8       29.64R
SEDALIA        CLOUDY    50  49  96 NW13      29.66S
WHITEMAN AFB   CLOUDY    49  49 100 NW10      29.66R
WARRENSBURG    CLOUDY    46  45  93 NW9G17    29.69R
OSAGE BEACH    CLOUDY    48  47  96 W5        29.66R

$$
MOZ051-052-059>065-310300-
...EAST CENTRAL MISSOURI...

CITY           SKY/WX    TMP DP  RH WIND       PRES   REMARKS
ST LOUIS INTL  MOCLDY    54  44  69 W8        29.62R
SPIRIT OF STL  CLOUDY    53  46  77 SW13      29.61R
ST CHARLES     CLOUDY    54  46  74 W8        29.61R

$$
MOZ072>076-082>087-097>100-106>115-310300-
...SOUTH CENTRAL AND SOUTHEAST MISSOURI...

CITY           SKY/WX    TMP DP  RH WIND       PRES   REMARKS
CAPE GIRARDEAU CLOUDY    54  44  69 W8        29.65R
FARMINGTON     CLOUDY    52  43  71 W9        29.65R
POPLAR BLUFF   CLOUDY    56  42  59 W13       29.66R
WEST PLAINS    CLOUDY    48  43  82 W12       29.69R

$$




USA.gov is the U.S. government's official web portal to all federal, state and local government web resources and services.